Location: Jackson
(42.2460°N, 84.4010°W)
Time: 02:33:19
(UTC-05:00)

Transit 4A - All Passes

Search period start: 15 February 2026 00:00
Search period end: 25 February 2026 00:00
Orbit: 865 x 976 km, 66.8° (Epoch: 13 February)

Date Brightness Start Highest point End Pass type
(mag) Time Alt. Az. Time Alt. Az. Time Alt. Az.
15 Feb - 03:40:43 10° SSE 03:45:11 23° ESE 03:49:45 10° NE visible
15 Feb - 05:25:17 10° SW 05:31:01 57° NW 05:36:57 10° NNE visible
15 Feb - 07:15:46 10° WNW 07:18:44 14° NNW 07:21:45 10° N daylight
15 Feb - 12:41:00 10° NNW 12:46:36 34° NE 12:52:18 10° ESE daylight
15 Feb - 14:27:08 10° NW 14:33:08 49° WSW 14:39:13 10° S daylight
16 Feb - 03:48:31 10° S 03:53:43 35° ESE 03:59:02 10° NE visible
16 Feb - 05:34:25 10° WSW 05:39:55 40° NW 05:45:34 10° NNE visible
16 Feb - 07:26:43 10° NW 07:28:03 11° NNW 07:29:24 10° NNW daylight
16 Feb - 11:05:10 10° N 11:07:35 12° NNE 11:10:00 10° NE daylight
16 Feb - 12:49:34 10° NNW 12:55:34 46° NE 13:01:38 10° SE daylight
16 Feb - 14:36:11 10° NW 14:41:44 34° WSW 14:47:20 10° S daylight
17 Feb - 03:56:41 10° S 04:02:18 52° ESE 04:08:05 10° NE visible
17 Feb - 05:43:47 10° WSW 05:48:53 30° NW 05:54:07 10° NNE visible
17 Feb - 11:13:12 10° N 11:16:52 16° NE 11:20:33 10° ENE daylight
17 Feb - 12:58:13 10° NNW 13:04:26 64° NE 13:10:45 10° SE daylight
17 Feb - 14:45:29 10° WNW 14:50:16 23° WSW 14:55:05 10° SSW daylight
18 Feb - 02:24:47 10° ESE 02:25:46 10° E 02:26:44 10° E visible
18 Feb - 04:05:09 10° SSW 04:10:58 77° ESE 04:16:58 10° NNE visible
18 Feb - 05:53:26 10° W 05:57:58 22° NW 06:02:36 10° N visible
18 Feb - 11:21:29 10° N 11:26:03 21° NE 11:30:39 10° E daylight
18 Feb - 13:06:56 10° NNW 13:13:14 89° ENE 13:19:37 10° SSE daylight
18 Feb - 14:55:17 10° WNW 14:58:44 15° WSW 15:02:11 10° SW daylight
19 Feb - 02:30:33 10° SE 02:34:09 17° ESE 02:37:49 10° ENE visible
19 Feb - 04:13:52 10° SW 04:19:43 75° WNW 04:25:45 10° NNE visible
19 Feb - 06:03:22 10° WNW 06:07:07 17° NW 06:10:57 10° N visible
19 Feb - 11:29:55 10° NNW 11:35:09 27° NE 11:40:26 10° ESE daylight
19 Feb - 13:15:45 10° NW 13:21:57 65° WSW 13:28:15 10° SSE daylight
20 Feb - 02:37:55 10° SSE 02:42:37 26° ESE 02:47:25 10° NE visible
20 Feb - 04:22:49 10° SW 04:28:32 52° NW 04:34:26 10° NNE visible
20 Feb - 06:13:40 10° WNW 06:16:22 13° NNW 06:19:05 10° N visible
20 Feb - 09:55:17 10° NNE 09:55:53 10° NNE 09:56:28 10° NNE daylight
20 Feb - 11:38:26 10° NNW 11:44:10 36° NE 11:49:59 10° ESE daylight
20 Feb - 13:24:41 10° NW 13:30:36 45° WSW 13:36:36 10° S daylight
21 Feb - 02:45:49 10° S 02:51:09 38° ESE 02:56:38 10° NE visible
21 Feb - 04:32:01 10° WSW 04:37:27 37° NW 04:43:02 10° NNE visible
21 Feb - 06:25:09 10° NNW 06:25:42 10° NNW 06:26:14 10° NNW visible
21 Feb - 10:02:25 10° N 10:05:13 13° NNE 10:08:02 10° ENE daylight
21 Feb - 11:47:02 10° NNW 11:53:06 50° NE 11:59:16 10° SE daylight
21 Feb - 13:33:47 10° NW 13:39:11 31° WSW 13:44:39 10° SSW daylight
22 Feb - 02:54:04 10° SSW 02:59:45 57° ESE 03:05:38 10° NE visible
22 Feb - 04:41:28 10° WSW 04:46:27 28° NW 04:51:34 10° NNE visible
22 Feb - 10:10:33 10° N 10:14:29 17° NE 10:18:26 10° ENE daylight
22 Feb - 11:55:41 10° NNW 12:01:58 70° ENE 12:08:19 10° SE daylight
22 Feb - 13:43:11 10° WNW 13:47:42 21° WSW 13:52:16 10° SSW daylight
23 Feb - 01:21:05 10° ESE 01:23:10 12° E 01:25:15 10° E night (unlit)
23 Feb - 03:02:35 10° SSW 03:08:26 84° ESE 03:14:29 10° NNE visible
23 Feb - 04:51:10 10° W 04:55:32 21° NW 05:00:01 10° N visible
23 Feb - 10:18:53 10° N 10:23:39 22° NE 10:28:27 10° E daylight
23 Feb - 12:04:25 10° NNW 12:10:45 84° WSW 12:17:07 10° SSE daylight
23 Feb - 13:53:12 10° WNW 13:56:09 14° WSW 13:59:07 10° SW daylight
24 Feb - 01:27:37 10° SSE 01:31:34 19° ESE 01:35:35 10° ENE visible
24 Feb - 03:11:22 10° SW 03:17:12 69° WNW 03:23:14 10° NNE visible
24 Feb - 05:01:10 10° WNW 05:04:43 16° NW 05:08:20 10° N visible
24 Feb - 10:27:21 10° NNW 10:32:44 29° NE 10:38:10 10° ESE daylight
24 Feb - 12:13:16 10° NW 12:19:27 59° WSW 12:25:41 10° SSE daylight
